Location: ??
(31.9467°N, 34.8903°E)
Time: 18:12:09
(UTC+00:00)

Cosmos 1346 Rocket - Pass Details

Date: 29 October 2020
Orbit: 535 x 543 km, 81.2° (Epoch: 30 November)

Event Time Altitude Azimuth Distance (km) Brightness Sun altitude
Rises 15:57:24 0° 359° (N) 2,707 6.3 -14.2°
Reaches altitude 10° 15:59:39 10° 6° (N) 1,812 5.3 -14.7°
Maximum altitude 16:03:29 46° 80° (E) 738 3.0 -15.5°
Drops below altitude 10° 16:07:18 10° 154° (SSE) 1,800 5.2 -16.3°
Sets 16:09:31 0° 161° (SSE) 2,687 6.2 -16.7°
